COSMOS 252 DEB *, 18648

Orbit data source: Space-Track

COSMOS 252 DEB *, 18648 is space debris in LEO originally from a launch on Fri, 01 Nov 1968 UTC launched from the Tyuratam Missile And Space Complex (TTMTR). Debris objects in space refer to the collection of defunct objects orbiting the Earth. Examples of debris include non-operational satellites, rocket bodies, and fragments generated from explosions, collisions, or faulty payload assembly.

Loading next visibility...
Identifier
18648, 1968-097ED
Orbit
LEO
Country
Flag of CISCIS
Related business
Manufacturer
Unknown
Mission
Spacecraft
Bus & Motor
Unknown
Mass
Unknown
Launch date (UTC)
1968-11-01 (57 years ago)
Launch vehicle
Unknown
Launch site
Tyuratam Missile And Space Complex (TTMTR)
Object type
Payload
Rocket body
Debris
Shape & HBR
Unknown shape, 1.1 m
Radar Cross Section
Small (<0.1 m²)

Expand to show TLE details & history
Last TLE update: 14 hours ago

TLE from 14 hours ago
0 COSMOS 252 DEB *
1 18648U 68097ED  26121.71100924  .00002341  00000-0  18988-2 0  9999
2 18648  62.2126  15.3440 0551446 343.4405  14.9203 13.38012969649351
Epoch: 2026-05-01T17:03Z
TLE epoch observation values (Epoch: 2026-05-01T17:03:51.198Z)
Latitude
0.00003°
Longitude
-100.25866°
Altitude
720.609 km
Speed
7.692 km/s
True Right ascension
01h 01m 22s
True Declination
0° 00' 00"
Sunlit
Object was in daylight at epoch
Visualization orbit readout
Latitude
Unknown
Longitude
Unknown
Altitude
Unknown
Speed
Unknown
Apparent Right ascension
Unknown
Apparent Declination
Unknown
Sunlit
N/A
Visualization observer readout
Local Sidereal Time
14:40:42
Azimuth
Unknown
Elevation
Unknown
Doppler factor
Unknown
Orbital elements
Apogee altitude
1,528.911 km
Perigee altitude
702.425 km
Semi-major axis
7,493.805 km
Eccentricity
0.05514
Inclination
62.2126°
RAAN
15.344°
Arg. of periapsis
343.4405°
True anomaly
16.66278°
Mean anomaly
14.9203°
Eccentric anomaly
15.7795°
Mean motion
3.34572 °/min
Orbital period
107.6 mins
BSTAR
0.0018988
Loading maneuver chart data...
Computing Atmospheric mass density...
Loading historical data...
Loading historical data...
Loading historical data...
Loading historical data...
Loading historical data...
Loading historical data...
Loading historical data...

Documentation

Showing up to 5 results
|